Preview of NWS' New Version of Forecast
This preview is not operational and should not be used for support decisions.

Regional Weather Roundup (RWR)

Issued by National Weather Service (NWS)

                            
000
ASCA42 TJSJ 190010
RWRPR 
PUERTO RICO/U.S. VIRGIN ISLANDS HOURLY WEATHER ROUNDUP
NATIONAL WEATHER SERVICE SAN JUAN PR
800 PM AST THU APR 18 2019

PRZ001>002-007>008-010-190100-
PUERTO RICO
  
CITY           SKY/WX    TMP DP  RH WIND       PRES   REMARKS
SAN JUAN LMM   PTCLDY    79  70  73 E12       30.03R                  
AGUADILLA      PTCLDY    77  70  78 E17G24    30.02R                  
CEIBA          CLEAR     81  68  65 MISG      30.04R                  
$$

VIZ001>002-190100-
U.S. VIRGIN ISLANDS
  
CITY           SKY/WX    TMP DP  RH WIND       PRES   REMARKS
CHARLOTTE AMA  CLEAR     79  66  65 E12       30.02R                  
CHRISTIANSTED  CLEAR     79  66  65 NE12G20   30.02R                  
$$

HOURLY WEATHER ROUNDUP FOR THE NEWS MEDIA
  
CITY           SKY/WX    TMP DP  RH WIND       PRES   REMARKS
ORLANDO        FAIR      81  69  67 E15       29.88S                  
NEW YORK       MOCLDY    55  51  86 S22       29.89F                  
NEWARK         MOCLDY    55  50  83 NE6       29.86F                  
CHICAGO        CLOUDY    45  39  79 NW14      29.75R                  
HARTFORD       CLOUDY    53  51  93 S17G25    30.00F                  
BOSTON         CLOUDY    51  45  79 SE5       30.00                   
DALLAS         MOSUNNY   70  41  34 N22       29.84R                  
PHILADELPHIA   MOCLDY    73  56  54 S9        29.85S                  
LOS ANGELES    MOSUNNY   67  54  63 W15       30.01F                  
WASHINGTON DC  MOCLDY    78  50  37 S10       29.78F